,,,PA_Meas_PMT16A,,PR_Meas_QMR101_102,,RH_Meas_QMH101,,SR_Meas_QMS101,,TA_Meas_QMH101,,GenWind,,GenWind,
date,time,status,PA,status,PR,status,RH,status,SR,status,TA,status,DirAvg,status,SpdAvg,
2014-01-07, 00:00:04,VALID,1009.32,VALID,0,VALID,104,VALID,0,VALID,23.5576,VALID,81,VALID,0,
2014-01-07, 00:01:04,VALID,1009.27,VALID,0,VALID,104,VALID,0,VALID,23.5576,VALID,81,VALID,0,
2014-01-07, 00:02:04,VALID,1009.28,VALID,0,VALID,104,VALID,0,VALID,23.5186,VALID,81,VALID,0,
2014-01-07, 00:03:04,VALID,1009.27,VALID,0,VALID,104,VALID,0,VALID,23.4974,VALID,81,VALID,0,
2014-01-07, 00:04:04,VALID,1009.26,VALID,0,VALID,104,VALID,0,VALID,23.5381,VALID,81,VALID,0,
2014-01-07, 00:05:04,VALID,1009.27,VALID,0,VALID,104,VALID,0,VALID,23.5381,VALID,81,VALID,0,
2014-01-07, 00:06:04,VALID,1009.26,VALID,0,VALID,104,VALID,0,VALID,23.5186,VALID,81,VALID,0,
2014-01-07, 00:07:04,VALID,1009.23,VALID,0,VALID,104,VALID,0,VALID,23.4974,VALID,81,VALID,0,
2014-01-07, 00:08:04,VALID,1009.21,VALID,0,VALID,104,VALID,0,VALID,23.5186,VALID,81,VALID,0,
2014-01-07, 00:09:04,VALID,1009.22,VALID,0,VALID,104,VALID,0,VALID,23.5186,VALID,81,VALID,0,
2014-01-07, 00:10:04,VALID,1009.19,VALID,0,VALID,104,VALID,0,VALID,23.4779,VALID,81,VALID,0,
2014-01-07, 00:11:04,VALID,1009.18,VALID,0,VALID,104,VALID,0,VALID,23.4992,VALID,81,VALID,0,
2014-01-07, 00:12:04,VALID,1009.19,VALID,0,VALID,104,VALID,0,VALID,23.5186,VALID,81,VALID,0,
2014-01-07, 00:13:04,VALID,1009.18,VALID,0,VALID,104,VALID,0,VALID,23.4974,VALID,81,VALID,0,
2014-01-07, 00:14:04,VALID,1009.17,VALID,0,VALID,104,VALID,0,VALID,23.4992,VALID,81,VALID,0,
2014-01-07, 00:15:04,VALID,1009.16,VALID,0,VALID,104,VALID,0,VALID,23.4992,VALID,81,VALID,0,
2014-01-07, 00:16:04,VALID,1009.15,VALID,0,VALID,104,VALID,0,VALID,23.4797,VALID,81,VALID,0,
2014-01-07, 00:17:04,VALID,1009.14,VALID,0,VALID,104,VALID,0,VALID,23.4797,VALID,82,VALID,0,
2014-01-07, 00:18:04,VALID,1009.12,VALID,0,VALID,104,VALID,0,VALID,23.4602,VALID,82,VALID,0,
2014-01-07, 00:19:04,VALID,1009.13,VALID,0,VALID,104,VALID,0,VALID,23.4797,VALID,81,VALID,0,
2014-01-07, 00:20:04,VALID,1009.1,VALID,0,VALID,104,VALID,0,VALID,23.4602,VALID,81,VALID,0,
2014-01-07, 00:21:04,VALID,1009.11,VALID,0,VALID,104,VALID,0,VALID,23.4194,VALID,80,VALID,0,
2014-01-07, 00:22:04,VALID,1009.11,VALID,0,VALID,104,VALID,0,VALID,23.4407,VALID,81,VALID,0,
2014-01-07, 00:23:04,VALID,1009.12,VALID,0,VALID,104,VALID,0,VALID,23.4407,VALID,81,VALID,0,
2014-01-07, 00:24:04,VALID,1009.11,VALID,0,VALID,104,VALID,0,VALID,23.4212,VALID,81,VALID,0,
2014-01-07, 00:25:04,VALID,1009.09,VALID,0,VALID,104,VALID,0,VALID,23.4212,VALID,81,VALID,0,
2014-01-07, 00:26:04,VALID,1009.1,VALID,0,VALID,104,VALID,0,VALID,23.3805,VALID,81,VALID,0,
2014-01-07, 00:27:04,VALID,1009.1,VALID,0,VALID,104,VALID,0,VALID,23.4017,VALID,81,VALID,0,
2014-01-07, 00:28:04,VALID,1009.09,VALID,0,VALID,104,VALID,0,VALID,23.3823,VALID,81,VALID,0,
2014-01-07, 00:29:04,VALID,1009.07,VALID,0,VALID,104,VALID,0,VALID,23.3628,VALID,81,VALID,0,
2014-01-07, 00:30:04,VALID,1009.09,VALID,0,VALID,104,VALID,0,VALID,23.3628,VALID,81,VALID,0,
2014-01-07, 00:31:04,VALID,1009.08,VALID,0,VALID,104,VALID,0,VALID,23.3628,VALID,81,VALID,0,
2014-01-07, 00:32:04,VALID,1009.05,VALID,0,VALID,104,VALID,0,VALID,23.3433,VALID,81,VALID,0,
2014-01-07, 00:33:04,VALID,1009.07,VALID,0,VALID,104,VALID,0,VALID,23.3451,VALID,81,VALID,0,
2014-01-07, 00:34:04,VALID,1009.06,VALID,0,VALID,104,VALID,0,VALID,23.2848,VALID,81,VALID,0,
2014-01-07, 00:35:04,VALID,1009.04,VALID,0,VALID,104,VALID,0,VALID,23.2848,VALID,81,VALID,0,
2014-01-07, 00:36:04,VALID,1009.05,VALID,0,VALID,104,VALID,0,VALID,23.2441,VALID,81,VALID,0,
2014-01-07, 00:37:04,VALID,1009.04,VALID,0,VALID,104,VALID,0,VALID,23.2459,VALID,81,VALID,0,
2014-01-07, 00:38:04,VALID,1009.05,VALID,0,VALID,104,VALID,0,VALID,23.2459,VALID,81,VALID,0,
2014-01-07, 00:39:04,VALID,1009.06,VALID,0,VALID,104,VALID,0,VALID,23.1857,VALID,81,VALID,0,
2014-01-07, 00:40:04,VALID,1009.04,VALID,0,VALID,104,VALID,0,VALID,23.1857,VALID,81,VALID,0,
2014-01-07, 00:41:04,VALID,1009.04,VALID,0,VALID,104,VALID,0,VALID,23.2069,VALID,81,VALID,0,
2014-01-07, 00:42:04,VALID,1009.02,VALID,0,VALID,104,VALID,0.112112,VALID,23.2069,VALID,81,VALID,0,
2014-01-07, 00:43:04,VALID,1009.03,VALID,0,VALID,104,VALID,0,VALID,23.2069,VALID,81,VALID,0,
2014-01-07, 00:44:04,VALID,1009.04,VALID,0,VALID,104,VALID,0,VALID,23.2069,VALID,81,VALID,0,
2014-01-07, 00:45:04,VALID,1009.02,VALID,0,VALID,104,VALID,0,VALID,23.2069,VALID,81,VALID,0,
2014-01-07, 00:46:04,VALID,1009.06,VALID,0,VALID,104,VALID,0,VALID,23.1857,VALID,81,VALID,0,
2014-01-07, 00:47:04,VALID,1009.04,VALID,0,VALID,104,VALID,0,VALID,23.1857,VALID,81,VALID,0,
2014-01-07, 00:48:04,VALID,1009.04,VALID,0,VALID,104,VALID,0,VALID,23.1874,VALID,81,VALID,0,
2014-01-07, 00:49:04,VALID,1009.04,VALID,0,VALID,104,VALID,0,VALID,23.2069,VALID,81,VALID,0,
2014-01-07, 00:50:04,VALID,1009.02,VALID,0,VALID,104,VALID,0,VALID,23.1874,VALID,81,VALID,0,
2014-01-07, 00:51:04,VALID,1009.02,VALID,0,VALID,104,VALID,0,VALID,23.1857,VALID,81,VALID,0,
2014-01-07, 00:52:04,VALID,1009.02,VALID,0,VALID,104,VALID,0,VALID,23.2069,VALID,81,VALID,0,
2014-01-07, 00:53:04,VALID,1009,VALID,0,VALID,104,VALID,0,VALID,23.1857,VALID,81,VALID,0,
2014-01-07, 00:54:04,VALID,1009.02,VALID,0,VALID,104,VALID,0,VALID,23.1857,VALID,81,VALID,0,
2014-01-07, 00:55:04,VALID,1009.01,VALID,0,VALID,104,VALID,0,VALID,23.2069,VALID,81,VALID,0,
2014-01-07, 00:56:04,VALID,1009.02,VALID,0,VALID,104,VALID,0,VALID,23.1857,VALID,81,VALID,0,
2014-01-07, 00:57:04,VALID,1008.98,VALID,0,VALID,104,VALID,0,VALID,23.2069,VALID,81,VALID,0,
2014-01-07, 00:58:04,VALID,1008.98,VALID,0,VALID,104,VALID,0,VALID,23.2264,VALID,81,VALID,0,
2014-01-07, 00:59:04,VALID,1008.97,VALID,0,VALID,104,VALID,0,VALID,23.2069,VALID,81,VALID,0,
2014-01-07, 01:00:04,VALID,1008.95,VALID,0,VALID,104,VALID,0,VALID,23.1874,VALID,81,VALID,0,
2014-01-07, 01:01:04,VALID,1008.95,VALID,0,VALID,104,VALID,0,VALID,23.1679,VALID,81,VALID,0,
2014-01-07, 01:02:04,VALID,1008.94,VALID,0,VALID,104,VALID,0,VALID,23.1679,VALID,81,VALID,0,
2014-01-07, 01:03:04,VALID,1008.95,VALID,0,VALID,104,VALID,0,VALID,23.1485,VALID,81,VALID,0,
2014-01-07, 01:04:04,VALID,1008.97,VALID,0,VALID,104,VALID,0,VALID,23.1485,VALID,81,VALID,0,
2014-01-07, 01:05:04,VALID,1008.95,VALID,0,VALID,104,VALID,0,VALID,23.129,VALID,81,VALID,0,
2014-01-07, 01:06:04,VALID,1008.96,VALID,0,VALID,104,VALID,0,VALID,23.1502,VALID,81,VALID,0,
2014-01-07, 01:07:04,VALID,1008.95,VALID,0,VALID,104,VALID,0,VALID,23.129,VALID,81,VALID,0,
2014-01-07, 01:08:04,VALID,1008.96,VALID,0,VALID,104,VALID,0,VALID,23.1095,VALID,81,VALID,0,
2014-01-07, 01:09:04,VALID,1008.93,VALID,0,VALID,104,VALID,0,VALID,23.1095,VALID,81,VALID,0,
2014-01-07, 01:10:04,VALID,1008.91,VALID,0,VALID,104,VALID,0,VALID,23.0883,VALID,81,VALID,0,
2014-01-07, 01:11:04,VALID,1008.9,VALID,0,VALID,104,VALID,0,VALID,23.09,VALID,81,VALID,0,
2014-01-07, 01:12:04,VALID,1008.9,VALID,0,VALID,104,VALID,0,VALID,23.0705,VALID,81,VALID,0,
2014-01-07, 01:13:04,VALID,1008.86,VALID,0,VALID,104,VALID,0,VALID,23.0705,VALID,81,VALID,0,
2014-01-07, 01:14:04,VALID,1008.86,VALID,0,VALID,104,VALID,0,VALID,23.0705,VALID,82,VALID,0,
2014-01-07, 01:15:04,VALID,1008.85,VALID,0,VALID,104,VALID,0,VALID,23.0705,VALID,81,VALID,0,
2014-01-07, 01:16:04,VALID,1008.83,VALID,0,VALID,104,VALID,0,VALID,23.0298,VALID,81,VALID,0,
2014-01-07, 01:17:04,VALID,1008.86,VALID,0,VALID,104,VALID,0,VALID,23.0511,VALID,81,VALID,0,
2014-01-07, 01:18:04,VALID,1008.86,VALID,0,VALID,104,VALID,0,VALID,23.0316,VALID,81,VALID,0,
2014-01-07, 01:19:04,VALID,1008.84,VALID,0,VALID,104,VALID,0,VALID,23.0316,VALID,81,VALID,0,
2014-01-07, 01:20:04,VALID,1008.86,VALID,0,VALID,104,VALID,0,VALID,23.0316,VALID,81,VALID,0,
2014-01-07, 01:21:04,VALID,1008.85,VALID,0,VALID,104,VALID,0,VALID,23.0316,VALID,82,VALID,0,
2014-01-07, 01:22:04,VALID,1008.84,VALID,0,VALID,104,VALID,0,VALID,23.0316,VALID,80,VALID,0,
2014-01-07, 01:23:04,VALID,1008.87,VALID,0,VALID,104,VALID,0,VALID,23.0511,VALID,82,VALID,0,
2014-01-07, 01:24:04,VALID,1008.83,VALID,0,VALID,104,VALID,0,VALID,23.0511,VALID,81,VALID,0,
2014-01-07, 01:25:04,VALID,1008.87,VALID,0,VALID,104,VALID,0,VALID,23.0298,VALID,81,VALID,0,
2014-01-07, 01:26:04,VALID,1008.86,VALID,0,VALID,104,VALID,0,VALID,23.0298,VALID,81,VALID,0,
2014-01-07, 01:27:04,VALID,1008.86,VALID,0,VALID,104,VALID,0,VALID,23.0511,VALID,81,VALID,0,
2014-01-07, 01:28:04,VALID,1008.87,VALID,0,VALID,104,VALID,0,VALID,23.0511,VALID,81,VALID,0,
2014-01-07, 01:29:04,VALID,1008.87,VALID,0,VALID,104,VALID,0,VALID,23.0705,VALID,81,VALID,0,
2014-01-07, 01:30:04,VALID,1008.84,VALID,0,VALID,104,VALID,0,VALID,23.0511,VALID,80,VALID,0,
2014-01-07, 01:31:04,VALID,1008.82,VALID,0,VALID,104,VALID,0,VALID,23.0511,VALID,81,VALID,0,
2014-01-07, 01:32:04,VALID,1008.83,VALID,0,VALID,104,VALID,0,VALID,23.0493,VALID,80,VALID,0,
2014-01-07, 01:33:04,VALID,1008.82,VALID,0,VALID,104,VALID,0,VALID,23.0511,VALID,81,VALID,0,
2014-01-07, 01:34:04,VALID,1008.83,VALID,0,VALID,104,VALID,0,VALID,23.0511,VALID,80,VALID,0,
2014-01-07, 01:35:04,VALID,1008.79,VALID,0,VALID,104,VALID,0,VALID,23.0316,VALID,80,VALID,0,
2014-01-07, 01:36:04,VALID,1008.81,VALID,0,VALID,104,VALID,0,VALID,23.0511,VALID,81,VALID,0,
2014-01-07, 01:37:04,VALID,1008.81,VALID,0,VALID,104,VALID,0,VALID,23.0511,VALID,81,VALID,0,
2014-01-07, 01:38:04,VALID,1008.78,VALID,0,VALID,104,VALID,0,VALID,23.0511,VALID,81,VALID,0,
2014-01-07, 01:39:04,VALID,1008.77,VALID,0,VALID,104,VALID,0,VALID,23.0705,VALID,81,VALID,0,
2014-01-07, 01:40:04,VALID,1008.76,VALID,0,VALID,104,VALID,0,VALID,23.0511,VALID,81,VALID,0,
2014-01-07, 01:41:04,VALID,1008.74,VALID,0,VALID,104,VALID,0,VALID,23.0511,VALID,81,VALID,0,
2014-01-07, 01:42:04,VALID,1008.75,VALID,0,VALID,104,VALID,0,VALID,23.0511,VALID,81,VALID,0,
2014-01-07, 01:43:04,VALID,1008.73,VALID,0,VALID,104,VALID,0,VALID,23.0511,VALID,81,VALID,0,
2014-01-07, 01:44:04,VALID,1008.7,VALID,0,VALID,104,VALID,0,VALID,23.0705,VALID,81,VALID,0,
2014-01-07, 01:45:04,VALID,1008.71,VALID,0,VALID,104,VALID,0,VALID,23.0511,VALID,81,VALID,0,
2014-01-07, 01:46:04,VALID,1008.7,VALID,0,VALID,104,VALID,0,VALID,23.0511,VALID,81,VALID,0,
2014-01-07, 01:47:04,VALID,1008.67,VALID,0,VALID,104,VALID,0,VALID,23.0493,VALID,81,VALID,0,
2014-01-07, 01:48:04,VALID,1008.64,VALID,0,VALID,104,VALID,0,VALID,23.0511,VALID,81,VALID,0,
2014-01-07, 01:49:04,VALID,1008.67,VALID,0,VALID,104,VALID,0,VALID,23.0723,VALID,81,VALID,0,
2014-01-07, 01:50:04,VALID,1008.64,VALID,0,VALID,104,VALID,0,VALID,23.0705,VALID,81,VALID,0,
2014-01-07, 01:51:04,VALID,1008.6,VALID,0,VALID,104,VALID,0,VALID,23.0705,VALID,81,VALID,0,
2014-01-07, 01:52:04,VALID,1008.61,VALID,0,VALID,104,VALID,0,VALID,23.0511,VALID,81,VALID,0,
2014-01-07, 01:53:04,VALID,1008.6,VALID,0,VALID,104,VALID,0,VALID,23.0511,VALID,81,VALID,0,
2014-01-07, 01:54:04,VALID,1008.58,VALID,0,VALID,104,VALID,0,VALID,23.0511,VALID,81,VALID,0,
2014-01-07, 01:55:04,VALID,1008.58,VALID,0,VALID,104,VALID,0,VALID,23.0298,VALID,81,VALID,0,
2014-01-07, 01:56:04,VALID,1008.57,VALID,0,VALID,104,VALID,0,VALID,23.0121,VALID,81,VALID,0,
2014-01-07, 01:57:04,VALID,1008.53,VALID,0,VALID,104,VALID,0,VALID,22.9926,VALID,81,VALID,0,
2014-01-07, 01:58:04,VALID,1008.54,VALID,0,VALID,104,VALID,0,VALID,22.9731,VALID,81,VALID,0,
2014-01-07, 01:59:04,VALID,1008.53,VALID,0,VALID,104,VALID,0,VALID,22.9731,VALID,81,VALID,0,
2014-01-07, 02:00:04,VALID,1008.54,VALID,0,VALID,104,VALID,0,VALID,22.9536,VALID,81,VALID,0,
2014-01-07, 02:01:04,VALID,1008.51,VALID,0,VALID,104,VALID,0,VALID,22.9536,VALID,81,VALID,0,
2014-01-07, 02:02:04,VALID,1008.53,VALID,0,VALID,104,VALID,0.112112,VALID,22.9731,VALID,81,VALID,0,
2014-01-07, 02:03:04,VALID,1008.5,VALID,0,VALID,104,VALID,0,VALID,22.9519,VALID,81,VALID,0,
2014-01-07, 02:04:04,VALID,1008.52,VALID,0,VALID,104,VALID,0,VALID,22.9731,VALID,81,VALID,0,
2014-01-07, 02:05:04,VALID,1008.51,VALID,0,VALID,104,VALID,0,VALID,22.9731,VALID,81,VALID,0,
2014-01-07, 02:06:04,VALID,1008.5,VALID,0,VALID,104,VALID,0,VALID,22.9536,VALID,81,VALID,0,
2014-01-07, 02:07:04,VALID,1008.5,VALID,0,VALID,104,VALID,0,VALID,22.9342,VALID,81,VALID,0,
2014-01-07, 02:08:04,VALID,1008.5,VALID,0,VALID,104,VALID,0,VALID,22.9147,VALID,81,VALID,0,
2014-01-07, 02:09:04,VALID,1008.47,VALID,0,VALID,104,VALID,0,VALID,22.8952,VALID,81,VALID,0,
2014-01-07, 02:10:04,VALID,1008.5,VALID,0,VALID,104,VALID,0,VALID,22.8952,VALID,81,VALID,0,
2014-01-07, 02:11:04,VALID,1008.46,VALID,0,VALID,104,VALID,0,VALID,22.9147,VALID,81,VALID,0,
2014-01-07, 02:12:04,VALID,1008.48,VALID,0,VALID,104,VALID,0,VALID,22.9342,VALID,81,VALID,0,
2014-01-07, 02:13:04,VALID,1008.5,VALID,0,VALID,104,VALID,0,VALID,22.9342,VALID,81,VALID,0,
2014-01-07, 02:14:04,VALID,1008.51,VALID,0,VALID,104,VALID,0,VALID,22.9147,VALID,81,VALID,0,
2014-01-07, 02:15:04,VALID,1008.52,VALID,0,VALID,104,VALID,0,VALID,22.8757,VALID,81,VALID,0,
2014-01-07, 02:16:04,VALID,1008.54,VALID,0,VALID,104,VALID,0,VALID,22.8775,VALID,81,VALID,0,
2014-01-07, 02:17:04,VALID,1008.55,VALID,0,VALID,104,VALID,0,VALID,22.8562,VALID,81,VALID,0,
2014-01-07, 02:18:04,VALID,1008.6,VALID,0,VALID,104,VALID,0,VALID,22.8562,VALID,80,VALID,0,
2014-01-07, 02:19:04,VALID,1008.6,VALID,0,VALID,104,VALID,0,VALID,22.8562,VALID,81,VALID,0,
2014-01-07, 02:20:04,VALID,1008.65,VALID,0,VALID,104,VALID,0,VALID,22.8562,VALID,81,VALID,0,
2014-01-07, 02:21:04,VALID,1008.61,VALID,0,VALID,104,VALID,0,VALID,22.8562,VALID,81,VALID,0,
2014-01-07, 02:22:04,VALID,1008.63,VALID,0,VALID,104,VALID,0.112112,VALID,22.8368,VALID,81,VALID,0,
2014-01-07, 02:23:04,VALID,1008.62,VALID,0,VALID,104,VALID,0,VALID,22.8173,VALID,80,VALID,0,
2014-01-07, 02:24:04,VALID,1008.61,VALID,0,VALID,104,VALID,0.112112,VALID,22.7978,VALID,81,VALID,0,
2014-01-07, 02:25:04,VALID,1008.64,VALID,0,VALID,104,VALID,0,VALID,22.7571,VALID,81,VALID,0,
2014-01-07, 02:26:04,VALID,1008.59,VALID,0,VALID,104,VALID,0,VALID,22.7783,VALID,81,VALID,0,
2014-01-07, 02:27:04,VALID,1008.62,VALID,0,VALID,104,VALID,0,VALID,22.7783,VALID,81,VALID,0,
2014-01-07, 02:28:04,VALID,1008.61,VALID,0,VALID,104,VALID,0,VALID,22.7394,VALID,81,VALID,0,
2014-01-07, 02:29:04,VALID,1008.61,VALID,0,VALID,104,VALID,0,VALID,22.7199,VALID,81,VALID,0,
2014-01-07, 02:30:04,VALID,1008.61,VALID,0,VALID,104,VALID,0.112112,VALID,22.7004,VALID,80,VALID,0,
2014-01-07, 02:31:04,VALID,1008.57,VALID,0,VALID,104,VALID,0,VALID,22.7004,VALID,81,VALID,0,
2014-01-07, 02:32:04,VALID,1008.57,VALID,0,VALID,104,VALID,0,VALID,22.6809,VALID,81,VALID,0,
2014-01-07, 02:33:04,VALID,1008.57,VALID,0,VALID,104,VALID,0,VALID,22.7004,VALID,81,VALID,0,
2014-01-07, 02:34:04,VALID,1008.52,VALID,0,VALID,104,VALID,0.112112,VALID,22.7004,VALID,81,VALID,0,
2014-01-07, 02:35:04,VALID,1008.55,VALID,0,VALID,104,VALID,0,VALID,22.6809,VALID,81,VALID,0,
2014-01-07, 02:36:04,VALID,1008.54,VALID,0,VALID,104,VALID,0,VALID,22.6809,VALID,81,VALID,0,
2014-01-07, 02:37:04,VALID,1008.53,VALID,0,VALID,104,VALID,0,VALID,22.6614,VALID,81,VALID,0,
2014-01-07, 02:38:04,VALID,1008.53,VALID,0,VALID,104,VALID,0.112112,VALID,22.6614,VALID,81,VALID,0,
2014-01-07, 02:39:04,VALID,1008.56,VALID,0,VALID,104,VALID,0,VALID,22.642,VALID,81,VALID,0,
2014-01-07, 02:40:04,VALID,1008.52,VALID,0,VALID,104,VALID,0,VALID,22.6208,VALID,81,VALID,0,
2014-01-07, 02:41:04,VALID,1008.54,VALID,0,VALID,104,VALID,0,VALID,22.6225,VALID,81,VALID,0,
2014-01-07, 02:42:04,VALID,1008.55,VALID,0,VALID,104,VALID,0,VALID,22.6225,VALID,81,VALID,0,
2014-01-07, 02:43:04,VALID,1008.53,VALID,0,VALID,104,VALID,0,VALID,22.603,VALID,81,VALID,0,
2014-01-07, 02:44:04,VALID,1008.52,VALID,0,VALID,104,VALID,0,VALID,22.5835,VALID,81,VALID,0,
2014-01-07, 02:45:04,VALID,1008.5,VALID,0,VALID,104,VALID,0,VALID,22.5835,VALID,81,VALID,0,
2014-01-07, 02:46:04,VALID,1008.49,VALID,0,VALID,104,VALID,0,VALID,22.5835,VALID,81,VALID,0,
2014-01-07, 02:47:04,VALID,1008.48,VALID,0,VALID,104,VALID,0.112112,VALID,22.564,VALID,81,VALID,0,
2014-01-07, 02:48:04,VALID,1008.44,VALID,0,VALID,104,VALID,0.112112,VALID,22.5429,VALID,81,VALID,0,
2014-01-07, 02:49:04,VALID,1008.45,VALID,0,VALID,104,VALID,0,VALID,22.564,VALID,81,VALID,0,
2014-01-07, 02:50:04,VALID,1008.43,VALID,0,VALID,104,VALID,0,VALID,22.564,VALID,81,VALID,0,
2014-01-07, 02:51:04,VALID,1008.43,VALID,0,VALID,104,VALID,0,VALID,22.5623,VALID,81,VALID,0,
2014-01-07, 02:52:04,VALID,1008.44,VALID,0,VALID,104,VALID,0,VALID,22.5818,VALID,81,VALID,0,
2014-01-07, 02:53:04,VALID,1008.41,VALID,0,VALID,104,VALID,0.112112,VALID,22.603,VALID,81,VALID,0,
2014-01-07, 02:54:04,VALID,1008.43,VALID,0,VALID,104,VALID,0,VALID,22.6013,VALID,81,VALID,0,
2014-01-07, 02:55:04,VALID,1008.41,VALID,0,VALID,104,VALID,0,VALID,22.6208,VALID,81,VALID,0,
2014-01-07, 02:56:04,VALID,1008.41,VALID,0,VALID,104,VALID,0.112112,VALID,22.642,VALID,81,VALID,0,
2014-01-07, 02:57:04,VALID,1008.41,VALID,0,VALID,104,VALID,0,VALID,22.6013,VALID,81,VALID,0,
2014-01-07, 02:58:04,VALID,1008.41,VALID,0,VALID,104,VALID,0,VALID,22.6013,VALID,81,VALID,0,
2014-01-07, 02:59:04,VALID,1008.39,VALID,0,VALID,104,VALID,0.112112,VALID,22.5818,VALID,81,VALID,0,
2014-01-07, 03:00:04,VALID,1008.37,VALID,0,VALID,104,VALID,0,VALID,22.6225,VALID,81,VALID,0,
2014-01-07, 03:01:04,VALID,1008.37,VALID,0,VALID,104,VALID,0.112112,VALID,22.603,VALID,81,VALID,0,
2014-01-07, 03:02:04,VALID,1008.36,VALID,0,VALID,104,VALID,0,VALID,22.5835,VALID,81,VALID,0,
2014-01-07, 03:03:04,VALID,1008.35,VALID,0,VALID,104,VALID,0,VALID,22.564,VALID,81,VALID,0,
2014-01-07, 03:04:04,VALID,1008.36,VALID,0,VALID,104,VALID,0,VALID,22.5446,VALID,81,VALID,0,
2014-01-07, 03:05:04,VALID,1008.37,VALID,0,VALID,104,VALID,0,VALID,22.5039,VALID,81,VALID,0,
2014-01-07, 03:06:04,VALID,1008.34,VALID,0,VALID,104,VALID,0.112112,VALID,22.5251,VALID,81,VALID,0,
2014-01-07, 03:07:04,VALID,1008.35,VALID,0,VALID,104,VALID,0,VALID,22.5251,VALID,81,VALID,0,
2014-01-07, 03:08:04,VALID,1008.32,VALID,0,VALID,104,VALID,0,VALID,22.5056,VALID,81,VALID,0,
2014-01-07, 03:09:04,VALID,1008.32,VALID,0,VALID,104,VALID,0,VALID,22.4844,VALID,81,VALID,0,
2014-01-07, 03:10:04,VALID,1008.31,VALID,0,VALID,104,VALID,0,VALID,22.5056,VALID,81,VALID,0,
2014-01-07, 03:11:04,VALID,1008.29,VALID,0,VALID,104,VALID,0.112112,VALID,22.5039,VALID,81,VALID,0,
2014-01-07, 03:12:04,VALID,1008.29,VALID,0,VALID,104,VALID,0,VALID,22.5039,VALID,81,VALID,0,
2014-01-07, 03:13:04,VALID,1008.27,VALID,0,VALID,104,VALID,0,VALID,22.5234,VALID,81,VALID,0,
2014-01-07, 03:14:04,VALID,1008.28,VALID,0,VALID,104,VALID,0,VALID,22.5446,VALID,81,VALID,0,
2014-01-07, 03:15:04,VALID,1008.28,VALID,0,VALID,104,VALID,0.112112,VALID,22.5234,VALID,81,VALID,0,
2014-01-07, 03:16:04,VALID,1008.26,VALID,0,VALID,104,VALID,0,VALID,22.5446,VALID,81,VALID,0,
2014-01-07, 03:17:04,VALID,1008.25,VALID,0,VALID,104,VALID,0.112112,VALID,22.5446,VALID,81,VALID,0,
2014-01-07, 03:18:04,VALID,1008.28,VALID,0,VALID,104,VALID,0,VALID,22.5446,VALID,81,VALID,0,
2014-01-07, 03:19:04,VALID,1008.25,VALID,0,VALID,104,VALID,0,VALID,22.5234,VALID,81,VALID,0,
2014-01-07, 03:20:04,VALID,1008.26,VALID,0,VALID,104,VALID,0,VALID,22.5234,VALID,81,VALID,0,
2014-01-07, 03:21:04,VALID,1008.25,VALID,0,VALID,104,VALID,0,VALID,22.5446,VALID,81,VALID,0,
2014-01-07, 03:22:04,VALID,1008.23,VALID,0,VALID,104,VALID,0,VALID,22.5446,VALID,81,VALID,0,
2014-01-07, 03:23:04,VALID,1008.23,VALID,0,VALID,104,VALID,0,VALID,22.5446,VALID,81,VALID,0,
2014-01-07, 03:24:04,VALID,1008.21,VALID,0,VALID,104,VALID,0,VALID,22.5446,VALID,81,VALID,0,
2014-01-07, 03:25:04,VALID,1008.21,VALID,0,VALID,104,VALID,0,VALID,22.5446,VALID,81,VALID,0,
2014-01-07, 03:26:04,VALID,1008.2,VALID,0,VALID,104,VALID,0,VALID,22.5234,VALID,81,VALID,0,
2014-01-07, 03:27:04,VALID,1008.2,VALID,0,VALID,104,VALID,0,VALID,22.5446,VALID,81,VALID,0,
2014-01-07, 03:28:04,VALID,1008.21,VALID,0,VALID,104,VALID,0,VALID,22.5446,VALID,81,VALID,0,
2014-01-07, 03:29:04,VALID,1008.21,VALID,0,VALID,104,VALID,0,VALID,22.5251,VALID,81,VALID,0,
2014-01-07, 03:30:04,VALID,1008.22,VALID,0,VALID,104,VALID,0,VALID,22.5251,VALID,81,VALID,0,
2014-01-07, 03:31:04,VALID,1008.24,VALID,0,VALID,104,VALID,0,VALID,22.5251,VALID,81,VALID,0,
2014-01-07, 03:32:04,VALID,1008.22,VALID,0,VALID,104,VALID,0,VALID,22.5056,VALID,81,VALID,0,
2014-01-07, 03:33:04,VALID,1008.19,VALID,0,VALID,104,VALID,0,VALID,22.4861,VALID,81,VALID,0,
2014-01-07, 03:34:04,VALID,1008.26,VALID,0,VALID,104,VALID,0,VALID,22.4861,VALID,81,VALID,0,
2014-01-07, 03:35:04,VALID,1008.24,VALID,0,VALID,104,VALID,0,VALID,22.4861,VALID,81,VALID,0,
2014-01-07, 03:36:04,VALID,1008.22,VALID,0,VALID,104,VALID,0,VALID,22.4667,VALID,81,VALID,0,
2014-01-07, 03:37:04,VALID,1008.24,VALID,0,VALID,104,VALID,0,VALID,22.4667,VALID,81,VALID,0,
2014-01-07, 03:38:04,VALID,1008.23,VALID,0,VALID,104,VALID,0,VALID,22.4472,VALID,81,VALID,0,
2014-01-07, 03:39:04,VALID,1008.22,VALID,0,VALID,104,VALID,0,VALID,22.4277,VALID,81,VALID,0,
2014-01-07, 03:40:04,VALID,1008.23,VALID,0,VALID,104,VALID,0,VALID,22.4277,VALID,81,VALID,0,
2014-01-07, 03:41:04,VALID,1008.26,VALID,0,VALID,104,VALID,0.112112,VALID,22.4065,VALID,81,VALID,0,
2014-01-07, 03:42:04,VALID,1008.28,VALID,0,VALID,104,VALID,0,VALID,22.4277,VALID,81,VALID,0,
2014-01-07, 03:43:04,VALID,1008.27,VALID,0,VALID,104,VALID,0,VALID,22.4277,VALID,81,VALID,0,
2014-01-07, 03:44:04,VALID,1008.26,VALID,0,VALID,104,VALID,0,VALID,22.4472,VALID,81,VALID,0,
2014-01-07, 03:45:04,VALID,1008.25,VALID,0,VALID,104,VALID,0,VALID,22.426,VALID,81,VALID,0,
2014-01-07, 03:46:04,VALID,1008.3,VALID,0,VALID,104,VALID,0.112112,VALID,22.4472,VALID,81,VALID,0,
2014-01-07, 03:47:04,VALID,1008.28,VALID,0,VALID,104,VALID,0,VALID,22.4277,VALID,81,VALID,0,
2014-01-07, 03:48:04,VALID,1008.29,VALID,0,VALID,104,VALID,0,VALID,22.4277,VALID,81,VALID,0,
2014-01-07, 03:49:04,VALID,1008.3,VALID,0,VALID,104,VALID,0,VALID,22.4082,VALID,81,VALID,0,
2014-01-07, 03:50:04,VALID,1008.32,VALID,0,VALID,104,VALID,0,VALID,22.4472,VALID,81,VALID,0,
2014-01-07, 03:51:04,VALID,1008.31,VALID,0,VALID,104,VALID,0,VALID,22.4082,VALID,80,VALID,0,
2014-01-07, 03:52:04,VALID,1008.33,VALID,0,VALID,104,VALID,0.112112,VALID,22.4082,VALID,81,VALID,0,
2014-01-07, 03:53:04,VALID,1008.36,VALID,0,VALID,104,VALID,0,VALID,22.3676,VALID,81,VALID,0,
2014-01-07, 03:54:04,VALID,1008.37,VALID,0,VALID,104,VALID,0,VALID,22.3887,VALID,81,VALID,0,
2014-01-07, 03:55:04,VALID,1008.35,VALID,0,VALID,104,VALID,0,VALID,22.4082,VALID,81,VALID,0,
2014-01-07, 03:56:04,VALID,1008.41,VALID,0,VALID,104,VALID,0.112112,VALID,22.3676,VALID,81,VALID,0,
2014-01-07, 03:57:04,VALID,1008.4,VALID,0,VALID,104,VALID,0,VALID,22.3887,VALID,81,VALID,0,
2014-01-07, 03:58:04,VALID,1008.43,VALID,0,VALID,104,VALID,0,VALID,22.3693,VALID,81,VALID,0,
2014-01-07, 03:59:04,VALID,1008.46,VALID,0,VALID,104,VALID,0,VALID,22.3303,VALID,81,VALID,0,
2014-01-07, 04:00:04,VALID,1008.46,VALID,0,VALID,104,VALID,0,VALID,22.2897,VALID,81,VALID,0,
2014-01-07, 04:01:04,VALID,1008.48,VALID,0,VALID,104,VALID,0,VALID,22.2702,VALID,81,VALID,0,
2014-01-07, 04:02:04,VALID,1008.52,VALID,0,VALID,104,VALID,0,VALID,22.2914,VALID,81,VALID,0,
2014-01-07, 04:03:04,VALID,1008.52,VALID,0,VALID,104,VALID,0,VALID,22.2914,VALID,81,VALID,0,
2014-01-07, 04:04:04,VALID,1008.55,VALID,0,VALID,104,VALID,0.112112,VALID,22.2702,VALID,81,VALID,0,
2014-01-07, 04:05:04,VALID,1008.56,VALID,0,VALID,104,VALID,0,VALID,22.2719,VALID,81,VALID,0,
2014-01-07, 04:06:04,VALID,1008.57,VALID,0,VALID,104,VALID,0,VALID,22.2312,VALID,81,VALID,0,
2014-01-07, 04:07:04,VALID,1008.58,VALID,0,VALID,104,VALID,0,VALID,22.2524,VALID,81,VALID,0,
2014-01-07, 04:08:04,VALID,1008.57,VALID,0,VALID,104,VALID,0,VALID,22.2524,VALID,81,VALID,0,
2014-01-07, 04:09:04,VALID,1008.54,VALID,0,VALID,104,VALID,0.112112,VALID,22.2719,VALID,81,VALID,0,
2014-01-07, 04:10:04,VALID,1008.53,VALID,0,VALID,104,VALID,0,VALID,22.2524,VALID,81,VALID,0,